• MPC Preparation (Info)

  • MPEC 2014-G74 : 2014 GV48

    The following Minor Planet Electronic Circular may be linked-to from your own Web pages, but must not otherwise be redistributed electronically.

    A form allowing access to any MPEC is at the bottom of this page.


    Read MPEC 2014-G73 Read MPEC 2014-G75


    M.P.E.C. 2014-G74                                Issued 2014 Apr. 11, 20:53 UT
    
         The Minor Planet Electronic Circulars contain information on unusual
             minor planets and routine data on comets.  They are published
       on behalf of Commission 20 of the International Astronomical Union by the
              Minor Planet Center, Smithsonian Astrophysical Observatory,
                              Cambridge, MA 02138, U.S.A.
    
                 Prepared using the Tamkin Foundation Computer Network
    
                                  MPC@CFA.HARVARD.EDU
                URL https://www.minorplanetcenter.net/    ISSN 1523-6714
    
                                       2014 GV48
    
    Observations:
         K14G48V* C2014 04 09.40751 12 47 10.706-17 40 49.10         20.0 iLEG074F51
         K14G48V  C2014 04 09.42997 12 47 26.844-17 40 53.82         20.1 iLEG074F51
         K14G48V  C2014 04 09.44120 12 47 34.872-17 40 55.64         19.9 iLEG074F51
         K14G48V KC2014 04 09.95057812 54 15.73 -17 40 01.2          20.9 VqEG074K92
         K14G48V KC2014 04 09.95518012 54 19.11 -17 40 01.6          20.4 VqEG074K92
         K14G48V KC2014 04 09.95947312 54 22.28 -17 40 01.8          20.4 VqEG074K92
         K14G48V KC2014 04 09.96399212 54 25.61 -17 40 02.0          20.1 VqEG074K92
         K14G48V KC2014 04 11.05091613 08 54.51 -17 39 31.6          20.9 VqEG074K93
         K14G48V KC2014 04 11.05475613 08 57.48 -17 39 30.3          20.4 VqEG074K93
         K14G48V KC2014 04 11.05852613 09 00.37 -17 39 29.2          20.6 VqEG074K93
         K14G48V KC2014 04 11.06224013 09 03.24 -17 39 27.5          19.6 VqEG074K93
         K14G48V |C2014 04 11.10193 13 09 47.47 -17 39 33.2          20.4 VuEG074807
         K14G48V |C2014 04 11.10930 13 09 53.09 -17 39 33.0          20.5 VuEG074807
         K14G48V |C2014 04 11.11695 13 09 58.91 -17 39 32.9          20.5 VuEG074807
    
    Observer details:
    807 Cerro Tololo.  Observers T. Linder, R. Holmes.  0.41-m f/11
        Ritchey-Chretien + CCD.
    F51 Pan-STARRS 1, Haleakala.  Observers N. Primak, A. Schultz, T. Goggia,
        M. Willman.  Measurer PS1 Science Consortium.  1.8-m Ritchey-Chretien
        + CCD.
    K92 Sutherland-LCOGT B.  Observer T. Lister.  1.0-m f/8 Ritchey-Chretien + CCD.
    K93 Sutherland-LCOGT C.  Observer T. Lister.  1.0-m f/8 Ritchey-Chretien + CCD.
    
    Orbital elements:
    2014 GV48                                                Earth MOID = 0.0536 AU
    Epoch 2014 May 23.0 TT = JDT 2456800.5                  MPC
    M  16.12398              (2000.0)            P               Q
    n   0.39085975     Peri.  353.16030     -0.92888300     +0.36907235
    a   1.8526303      Node   208.55978     -0.33666359     -0.87628045
    e   0.4299956      Incl.    3.71972     -0.15438261     -0.30970660
    P   2.52           H   25.9           G   0.15           U   7
    Residuals in seconds of arc
    140409 F51  0.6-  0.3-    140409 K92  0.0   0.1+    140411 K93  0.0   0.3+
    140409 F51  0.4+  0.0     140409 K92  0.2+  0.2+    140411 807  0.0   0.0
    140409 F51  0.2+  0.3+    140411 K93  0.2-  0.2-    140411 807  0.1+  0.1+
    140409 K92  0.2-  0.1+    140411 K93  0.1+  0.1-    140411 807  0.1+  0.1-
    140409 K92  0.2-  0.1+    140411 K93  0.1-  0.2-
    
    Ephemeris:
    2014 GV48                a,e,i = 1.85, 0.43, 4                   q = 1.0560
    Date    TT    R. A. (2000) Decl.     Delta      r     Elong.  Phase     V
    2014 03 12    09 55 50.3 -09 59 40   0.1257  1.1074   153.5    23.6    22.7
    ...
    2014 03 27    10 43 45.3 -14 05 29   0.08022 1.0698   153.0    25.0    21.7
    ...
    2014 04 04    11 44 37.2 -16 38 00   0.06278 1.0593   160.2    18.6    21.0
    ...
    2014 04 10    12 54 55.5 -17 40 46   0.05535 1.0561   169.1    10.3    20.4
    2014 04 11    13 08 18.7 -17 40 29   0.05474 1.0560   170.2     9.3    20.3
    2014 04 12    13 21 57.4 -17 36 17   0.05433 1.0559   170.9     8.6    20.3
    ...
    2014 04 18    14 42 35.6 -15 52 34   0.05617 1.0582   164.6    14.6    20.6
    ...
    2014 04 26    16 03 38.5 -11 57 35   0.06832 1.0675   152.9    25.4    21.4
    ...
    2014 05 11    17 11 47.3 -07 12 14   0.1074  1.1029   148.6    28.5    22.5
    
    A. U. Tomatic                (C) Copyright 2014 MPC           M.P.E.C. 2014-G74
    

    Read MPEC 2014-G73 Read MPEC 2014-G75


    MPEC number:

    Enter an MPEC number in one of the following forms:

    • 1997-B01 (the full form)
    • J97B01 (the packed version of the full form)
    • B01 (the abbreviated form)